C1219 Weather Reports


time (UTC)temp
C
wind
direction
speed
KPH
gust
KPH
rain 1hr
cm
rain 24hr
cm
rain mn
cm
humidity
%
barometer
mb
20260506162547 6 111 1.6 6.4 0.28 2.74 1.68 96 1007.1
20260506162047 6 49 1.6 9.7 0.25 2.67 1.63 96 1007.2
20260506161555 6 88 3.2 9.7 0.23 2.64 1.60 96 1007.1
20260506161047 6 30 1.6 11.3 0.20 2.62 1.55 96 1007.1
20260506160547 6 0 3.2 11.3 0.20 2.62 1.55 96 1007.0
20260506160053 6 341 1.6 11.3 0.20 2.59 1.52 96 1007.1
20260506155552 6 342 1.6 16.1 0.20 2.57 1.47 96 1007.0
20260506155048 6 35 3.2 16.1 0.18 2.54 1.47 96 1007.0
20260506154553 6 61 3.2 14.5 0.20 2.54 1.47 96 1007.0
20260506154047 6 26 3.2 12.9 0.18 2.51 1.45 96 1007.0
20260506153549 6 108 3.2 8.0 0.18 2.49 1.42 96 1007.0
20260506153052 6 0 1.6 4.8 0.18 2.46 1.40 96 1007.2
20260506152548 6 59 1.6 14.5 0.18 2.46 1.40 96 1007.2
20260506152047 6 74 4.8 14.5 0.15 2.44 1.37 96 1007.2
20260506151550 6 49 3.2 8.0 0.15 2.44 1.37 96 1007.3
20260506151047 6 52 1.6 14.5 0.13 2.41 1.32 96 1007.3
20260506150550 6 52 3.2 14.5 0.15 2.41 1.32 96 1007.3
20260506150056 7 342 1.6 8.0 0.13 2.39 1.32 96 1007.4
20260506145548 7 14 0.0 6.4 0.13 2.36 1.30 96 1007.5
20260506145048 7 84 3.2 9.7 0.13 2.36 1.30 96 1007.4
20260506144603 7 37 0.0 9.7 0.13 2.34 1.27 96 1007.6
20260506144047 7 58 3.2 8.0 0.13 2.34 1.27 96 1007.5
20260506143548 7 43 3.2 8.0 0.13 2.31 1.24 96 1007.5
20260506143052 7 39 0.0 6.4 0.10 2.29 1.22 96 1007.6
20260506142548 7 0 0.0 6.4 0.13 2.29 1.22 96 1007.5
20260506142047 7 36 0.0 6.4 0.15 2.29 1.22 96 1007.7
20260506141555 7 19 3.2 6.4 0.18 2.29 1.22 96 1007.5
20260506141047 7 44 1.6 6.4 0.20 2.29 1.22 96 1007.5
20260506140552 7 38 0.0 8.0 0.20 2.26 1.19 96 1007.5
20260506140052 7 84 1.6 8.0 0.23 2.26 1.19 96 1007.6
20260506135547 7 65 4.8 8.0 0.23 2.24 1.17 96 1007.6
20260506135048 7 86 3.2 16.1 0.25 2.24 1.17 96 1007.9
20260506134554 7 17 4.8 16.1 0.28 2.21 1.14 96 1007.4
20260506134047 7 0 3.2 14.5 0.30 2.21 1.14 96 1007.9
20260506133547 7 82 4.8 12.9 0.30 2.18 1.12 96 1007.2
20260506133058 7 240 4.8 12.9 0.30 2.18 1.12 96 1007.9
20260506132547 7 0 0.0 16.1 0.30 2.16 1.09 96 1007.8
20260506132048 7 153 3.2 16.1 0.30 2.13 1.07 96 1007.5
20260506131554 7 234 4.8 16.1 0.28 2.11 1.04 96 1009.1
20260506131047 7 5 8.0 16.1 0.28 2.08 1.02 96 1007.8
20260506130547 7 73 6.4 12.9 0.28 2.06 0.99 96 1007.7
20260506130053 7 66 3.2 6.4 0.28 2.03 0.97 96 1007.9
20260506125546 7 360 3.2 9.7 0.25 2.01 0.94 96 1008.7
20260506125046 7 84 3.2 9.7 0.23 1.98 0.91 96 1008.1
20260506124555 7 274 3.2 8.0 0.18 1.93 0.86 96 1008.6
20260506124047 7 72 1.6 8.0 0.15 1.91 0.84 96 1008.1
20260506123547 7 65 4.8 14.5 0.13 1.88 0.81 96 1008.2
20260506123052 7 22 1.6 14.5 0.13 1.88 0.81 96 1008.5
20260506122547 7 58 6.4 14.5 0.10 1.85 0.79 96 1008.3
20260506122046 7 0 4.8 14.5 0.08 1.83 0.76 96 1008.6
20260506121549 7 86 6.4 14.5 0.08 1.83 0.76 96 1008.3
20260506121047 7 100 3.2 8.0 0.05 1.80 0.74 96 1008.7
20260506120548 7 5 0.0 9.7 0.05 1.78 0.71 96 1008.8
20260506120051 7 75 1.6 9.7 0.03 1.75 0.69 96 1008.5
20260506115550 7 26 4.8 9.7 0.03 1.75 0.69 96 1008.3
20260506115047 7 336 1.6 9.7 0.03 1.75 0.69 96 1008.6
20260506114552 7 329 1.6 4.8 0.03 1.75 0.69 96 1008.5
20260506114047 7 300 1.6 3.2 0.03 1.75 0.69 96 1008.4
20260506113547 7 0 0.0 3.2 0.03 1.75 0.69 96 1008.5
20260506113052 7 0 0.0 8.0 0.05 1.75 0.69 96 1008.4
20260506112547 7 51 0.0 8.0 0.05 1.75 0.69 96 1008.3
20260506112046 7 44 3.2 6.4 0.05 1.75 0.69 96 1008.3
20260506111553 7 0 0.0 8.0 0.05 1.75 0.69 96 1008.3
20260506111051 7 0 1.6 8.0 0.05 1.75 0.69 96 1008.3
20260506110547 7 45 1.6 8.0 0.05 1.73 0.66 96 1008.2
20260506110055 7 76 0.0 8.0 0.05 1.73 0.66 96 1008.2
20260506105548 7 86 1.6 9.7 0.05 1.73 0.66 96 1008.2
20260506105050 7 352 1.6 11.3 0.05 1.73 0.66 96 1008.2
20260506104557 7 35 1.6 11.3 0.05 1.73 0.66 96 1008.2
20260506104048 7 51 3.2 4.8 0.05 1.73 0.66 96 1008.2
20260506103548 7 43 0.0 8.0 0.05 1.73 0.66 96 1008.2
20260506103055 7 72 1.6 8.0 0.03 1.70 0.64 96 1008.3
20260506102548 7 63 1.6 8.0 0.03 1.70 0.64 96 1008.2
20260506102046 7 80 3.2 8.0 0.03 1.70 0.64 96 1008.2
20260506101552 8 71 1.6 6.4 0.03 1.70 0.64 96 1008.4
20260506101052 8 351 1.6 6.4 0.03 1.70 0.64 96 1008.5
20260506100548 8 0 0.0 8.0 0.00 1.68 0.61 96 1008.8
20260506100053 8 0 3.2 8.0 0.00 1.68 0.61 96 1008.6
20260506095548 8 60 1.6 8.0 0.00 1.68 0.61 96 1008.6
20260506095049 8 109 4.8 8.0 0.00 1.68 0.61 96 1008.3
20260506094605 8 47 0.0 8.0 0.03 1.68 0.61 96 1008.8
20260506094050 8 0 0.0 11.3 0.03 1.68 0.61 96 1008.9
20260506093550 8 55 4.8 12.9 0.03 1.68 0.61 96 1008.5
20260506093049 8 352 4.8 12.9 0.03 1.68 0.61 96 1008.5
20260506092548 8 85 3.2 12.9 0.03 1.68 0.61 96 1008.2
20260506092049 8 338 1.6 11.3 0.03 1.68 0.61 96 1009.1
20260506091547 8 49 3.2 11.3 0.05 1.68 0.61 96 1008.7
20260506091048 8 57 3.2 11.3 0.18 1.68 0.61 96 1008.3
20260506090547 8 59 1.6 11.3 0.18 1.68 0.61 96 1008.5
20260506090048 8 67 3.2 11.3 0.18 1.68 0.61 96 1008.6
20260506085547 8 79 1.6 6.4 0.18 1.68 0.61 96 1008.8
20260506085050 8 86 1.6 4.8 0.20 1.68 0.61 96 1008.8
20260506084601 8 20 0.0 6.4 0.18 1.65 0.58 96 1009.2
20260506084047 8 74 0.0 6.4 0.18 1.65 0.58 95 1008.9
20260506083550 8 74 0.0 3.2 0.18 1.65 0.58 95 1008.8
20260506083106 8 0 1.6 3.2 0.20 1.65 0.58 95 1009.0
20260506082549 9 60 0.0 3.2 0.23 1.65 0.58 95 1008.9
20260506082047 9 0 0.0 6.4 0.23 1.65 0.58 95 1008.8
20260506081558 9 107 0.0 6.4 0.20 1.63 0.56 95 1008.9
20260506081047 9 302 1.6 14.5 0.08 1.47 0.43 95 1009.7
20260506080550 9 38 4.8 14.5 0.08 1.47 0.43 95 1008.7
20260506080108 9 298 3.2 11.3 0.08 1.47 0.43 95 1008.2
20260506073106 10 32 1.6 9.7 0.05 1.45 0.38 95 1008.5
20260506072547 10 53 4.8 12.9 0.03 1.42 0.36 95 1008.3
20260506072047 10 44 6.4 12.9 0.03 1.42 0.36 95 1008.5
20260506071557 10 43 1.6 12.9 0.03 1.42 0.36 95 1008.5
20260506071051 10 50 4.8 9.7 0.03 1.42 0.36 95 1008.5
20260506070546 10 0 1.6 3.2 0.03 1.42 0.36 95 1008.8
20260506062048 10 0 0.0 0.0 0.05 1.40 0.33 94 1008.8
20260506061549 10 0 0.0 3.2 0.05 1.40 0.33 94 1008.6
20260506061048 10 0 0.0 3.2 0.05 1.40 0.33 94 1008.5
20260506060547 10 0 0.0 3.2 0.05 1.40 0.33 94 1008.8
20260506051046 10 173 0.0 3.2 0.15 1.32 0.28 95 1009.1
20260506050548 10 0 0.0 3.2 0.18 1.32 0.28 95 1008.5
20260506045047 10 113 1.6 6.4 0.38 1.32 0.28 94 1008.5
20260506044554 10 141 0.0 3.2 0.36 1.32 0.25 94 1008.4
20260506044048 10 0 0.0 3.2 0.30 1.27 0.20 94 1008.9
20260506043548 10 0 0.0 4.8 0.30 1.27 0.20 94 1008.4
20260506043053 10 0 1.6 6.4 0.33 1.27 0.20 94 1008.5
20260506042548 10 0 0.0 6.4 0.33 1.24 0.18 94 1008.5
20260506042048 10 0 1.6 6.4 0.33 1.22 0.15 93 1008.8
20260506041555 11 0 0.0 9.7 0.36 1.22 0.15 92 1008.7
20260506041046 11 0 0.0 9.7 0.36 1.19 0.13 91 1008.7
20260506040548 11 259 3.2 11.3 0.36 1.17 0.10 91 1008.8
20260506040057 11 88 1.6 19.3 0.25 1.07 0.00 90 1008.9
20260506035550 11 153 4.8 17.7 0.18 0.99 0.99 89 1008.6
20260506035048 11 0 0.0 8.0 0.18 0.97 0.97 89 1008.3
20260506034556 11 334 0.0 11.3 0.18 0.97 0.97 89 1008.0
20260506034048 11 0 1.6 14.5 0.18 0.97 0.97 88 1007.9
20260506033549 12 257 3.2 14.5 0.18 0.97 0.97 89 1008.1
20260506033106 12 65 0.0 14.5 0.15 0.94 0.94 89 1008.0
20260506032548 12 315 3.2 14.5 0.13 0.91 0.91 89 1008.1
20260506032048 13 283 1.6 6.4 0.10 0.89 0.89 89 1007.9
20260506031553 13 5 3.2 8.0 0.08 0.86 0.86 88 1007.7
20260506031046 13 288 3.2 8.0 0.05 0.84 0.84 87 1007.8
20260506030548 13 287 1.6 4.8 0.03 0.81 0.81 86 1007.5
20260506030100 13 268 3.2 8.0 0.03 0.81 0.81 84 1007.4
20260506025546 14 296 1.6 9.7 0.03 0.81 0.81 82 1007.4
20260506025051 15 204 4.8 9.7 0.00 0.79 0.79 78 1007.3
20260506024608 15 212 4.8 11.3 0.00 0.79 0.79 76 1007.3
20260506024047 15 202 4.8 11.3 0.00 0.79 0.79 78 1007.4
20260506023547 15 220 1.6 4.8 0.00 0.79 0.79 79 1007.4
20260506023054 15 207 3.2 6.4 0.00 0.79 0.79 78 1007.3
20260506022548 15 0 1.6 9.7 0.00 0.79 0.79 76 1007.2
20260506022048 15 218 4.8 11.3 0.00 0.79 0.79 75 1007.3
20260506021558 15 200 4.8 11.3 0.00 0.79 0.79 75 1007.4
20260506021048 15 150 3.2 11.3 0.00 0.79 0.79 75 1007.5
20260506020547 15 253 3.2 6.4 0.00 0.79 0.79 77 1007.5
20260506020049 15 295 1.6 6.4 0.00 0.79 0.79 78 1007.4
20260506015550 15 258 3.2 6.4 0.00 0.79 0.79 79 1007.3
20260506015047 14 323 1.6 4.8 0.00 0.79 0.79 81 1007.2
20260506014549 14 300 3.2 4.8 0.00 0.79 0.79 81 1007.1
20260506014049 14 0 1.6 3.2 0.00 0.79 0.79 82 1006.9
20260506013547 14 304 0.0 3.2 0.00 0.79 0.79 81 1006.8
20260506013101 14 0 0.0 3.2 0.00 0.79 0.79 83 1006.6
20260506012547 14 0 0.0 6.4 0.00 0.79 0.79 82 1006.7
20260506012046 15 310 1.6 8.0 0.00 0.79 0.79 81 1006.6
20260506011620 15 235 3.2 8.0 0.00 0.79 0.79 79 1006.6
20260506011047 15 255 1.6 11.3 0.00 0.79 0.79 78 1006.6
20260506010547 15 257 3.2 11.3 0.00 0.79 0.79 80 1006.5
20260506010059 14 230 1.6 4.8 0.00 0.79 0.79 82 1006.5
20260506005548 14 275 1.6 9.7 0.00 0.79 0.79 84 1006.5
20260506005052 14 209 3.2 9.7 0.00 0.79 0.79 84 1006.6
20260506004555 14 217 1.6 6.4 0.00 0.79 0.79 83 1006.5
20260506004048 14 234 1.6 8.0 0.00 0.79 0.79 83 1006.6
20260506003547 14 205 3.2 14.5 0.00 0.79 0.79 82 1006.4
20260506003056 15 216 1.6 14.5 0.00 0.79 0.79 82 1006.4
20260506002547 15 188 3.2 14.5 0.00 0.79 0.79 81 1006.4
20260506002047 15 209 3.2 8.0 0.00 0.79 0.79 81 1006.3
20260506001552 15 187 3.2 9.7 0.00 0.79 0.79 81 1006.3
20260506001047 15 184 3.2 12.9 0.00 0.79 0.79 80 1006.2
20260506000549 15 200 4.8 12.9 0.00 0.79 0.79 81 1006.3
20260505235547 14 202 4.8 9.7 0.00 0.79 0.79 87 1006.4
20260505235048 13 217 1.6 9.7 0.00 0.79 0.79 87 1006.4
20260505234601 13 246 1.6 9.7 0.00 0.79 0.79 87 1006.1
20260505234048 14 201 3.2 9.7 0.00 0.79 0.79 85 1006.1
20260505233549 15 184 3.2 9.7 0.00 0.79 0.79 82 1006.0
20260505233053 15 193 4.8 9.7 0.00 0.79 0.79 81 1006.0
20260505232549 14 213 3.2 4.8 0.00 0.79 0.79 87 1006.0
20260505232048 14 167 1.6 6.4 0.00 0.79 0.79 87 1005.9
20260505231554 14 153 0.0 6.4 0.00 0.79 0.79 89 1005.8
20260505231047 14 166 1.6 6.4 0.00 0.79 0.79 90 1005.7
20260505230548 14 108 1.6 6.4 0.00 0.79 0.79 88 1005.7
20260505230058 14 142 0.0 12.9 0.00 0.79 0.79 89 1005.5
20260505225548 14 294 3.2 12.9 0.00 0.79 0.79 87 1005.4
20260505225048 14 78 3.2 12.9 0.00 0.79 0.79 87 1005.3
20260505224554 14 285 3.2 8.0 0.03 0.79 0.79 89 1005.3
20260505224048 14 146 1.6 9.7 0.03 0.79 0.79 89 1005.6
20260505223547 14 163 3.2 17.7 0.03 0.79 0.79 90 1005.5
20260505223057 14 223 4.8 17.7 0.03 0.79 0.79 89 1005.5
20260505222547 14 167 6.4 16.1 0.05 0.79 0.79 89 1005.4
20260505222048 14 184 1.6 14.5 0.10 0.79 0.79 90 1005.3
20260505221604 14 84 3.2 17.7 0.10 0.79 0.79 90 1005.5
20260505221048 14 196 6.4 17.7 0.13 0.79 0.79 91 1005.3
20260505220548 14 131 6.4 12.9 0.13 0.79 0.79 91 1005.3
20260505220103 14 213 4.8 12.9 0.13 0.79 0.79 89 1005.2
20260505215548 14 277 1.6 4.8 0.15 0.79 0.79 88 1004.9
20260505215048 14 259 0.0 12.9 0.20 0.79 0.79 90 1005.2
20260505214555 14 0 3.2 16.1 0.18 0.76 0.76 90 1005.2
20260505214048 14 235 3.2 16.1 0.18 0.76 0.76 89 1005.4
20260505213547 14 268 0.0 3.2 0.20 0.76 0.76 90 1005.4
20260505213054 14 0 0.0 4.8 0.20 0.76 0.76 91 1005.4
20260505212548 14 302 0.0 4.8 0.18 0.74 0.74 90 1005.4
20260505212047 14 0 0.0 14.5 0.13 0.69 0.69 91 1005.4
20260505211555 14 0 0.0 14.5 0.13 0.69 0.69 89 1005.4
20260505211048 15 305 4.8 14.5 0.10 0.66 0.66 90 1005.4
20260505210547 15 17 3.2 12.9 0.10 0.66 0.66 90 1005.4
20260505210054 15 217 3.2 14.5 0.10 0.66 0.66 90 1005.4
20260505205547 15 274 4.8 16.1 0.10 0.64 0.64 89 1005.4
20260505205049 15 295 3.2 22.5 0.13 0.58 0.58 88 1005.6
20260505204601 15 105 4.8 22.5 0.36 0.58 0.58 87 1004.9
20260505204049 15 205 9.7 19.3 0.58 0.58 0.58 84 1004.6
20260505203552 15 198 8.0 27.4 0.56 0.56 0.56 85 1004.5
20260505203051 15 171 6.4 27.4 0.56 0.56 0.56 85 1004.3
20260505202626 15 161 6.4 22.5 0.56 0.56 0.56 87 1004.0
20260505202548 15 161 6.4 22.5 0.56 0.56 0.56 87 1004.0
20260505202047 15 171 8.0 20.9 0.56 0.56 0.56 86 1003.9
20260505201555 15 163 4.8 11.3 0.56 0.56 0.56 84 1004.1
20260505201048 15 188 3.2 11.3 0.56 0.56 0.56 86 1004.0
20260505200548 15 74 1.6 30.6 0.56 0.56 0.56 87 1004.1
20260505200054 15 213 4.8 30.6 0.56 0.56 0.56 86 1004.3
20260505195547 14 0 6.4 45.1 0.53 0.53 0.53 86 1004.3
20260505195047 15 217 14.5 46.7 0.43 0.43 0.43 78 1004.3
20260505194600 17 255 22.5 48.3 0.18 0.18 0.18 67 1004.2
20260505194047 21 263 16.1 48.3 0.00 0.00 0.00 53 1003.9
20260505193547 22 152 9.7 29.0 0.00 0.00 0.00 44 1002.7
20260505193051 21 209 11.3 29.0 0.00 0.00 0.00 46 1001.8
20260505192550 21 138 3.2 14.5 0.00 0.00 0.00 48 1001.5
20260505192048 21 202 6.4 20.9 0.00 0.00 0.00 50 1001.8
20260505191550 21 154 4.8 20.9 0.00 0.00 0.00 48 1001.5
20260505191048 21 248 12.9 27.4 0.00 0.00 0.00 46 1001.8
20260505190546 22 306 8.0 29.0 0.00 0.00 0.00 44 1002.0
20260505190055 22 244 14.5 37.0 0.00 0.00 0.00 42 1001.9
20260505185550 23 207 9.7 37.0 0.00 0.00 0.00 40 1001.9
20260505185047 23 173 4.8 22.5 0.00 0.00 0.00 38 1002.4
20260505184555 23 161 3.2 24.1 0.00 0.00 0.00 38 1001.7
20260505184048 23 172 8.0 24.1 0.00 0.00 0.00 39 1001.8
20260505183552 23 180 11.3 25.7 0.00 0.00 0.00 38 1001.9
20260505183053 23 180 9.7 37.0 0.00 0.00 0.00 38 1002.0
20260505182548 23 144 11.3 38.6 0.00 0.00 0.00 37 1002.0
20260505182048 23 175 9.7 38.6 0.00 0.00 0.00 38 1001.8
20260505181549 24 192 9.7 22.5 0.00 0.00 0.00 37 1001.9
20260505181047 24 211 6.4 29.0 0.00 0.00 0.00 36 1002.1
20260505180548 24 157 11.3 29.0 0.00 0.00 0.00 38 1002.2
20260505180051 24 163 9.7 29.0 0.00 0.00 0.00 37 1002.1
20260505175548 24 175 9.7 51.5 0.00 0.00 0.00 37 1002.1
20260505175048 24 273 14.5 51.5 0.00 0.00 0.00 36 1002.4
20260505174552 24 211 9.7 30.6 0.00 0.00 0.00 36 1001.9
20260505174048 24 253 9.7 30.6 0.00 0.00 0.00 36 1002.1
20260505173548 23 130 11.3 25.7 0.00 0.00 0.00 38 1002.1
20260505173053 23 182 11.3 32.2 0.00 0.00 0.00 38 1002.0
20260505172547 23 203 9.7 32.2 0.00 0.00 0.00 39 1002.0
20260505172047 23 183 9.7 45.1 0.00 0.00 0.00 39 1002.2
20260505171553 23 226 14.5 45.1 0.00 0.00 0.00 38 1002.4
20260505171048 23 263 6.4 35.4 0.00 0.00 0.00 39 1002.7
20260505170547 23 200 14.5 32.2 0.00 0.00 0.00 38 1002.6
20260505170050 23 184 9.7 30.6 0.00 0.00 0.00 39 1002.8
20260505165549 23 242 11.3 30.6 0.00 0.03 0.00 38 1002.8
20260505165048 23 205 8.0 27.4 0.00 0.03 0.00 39 1002.8
20260505164559 23 200 9.7 25.7 0.00 0.03 0.00 40 1002.9
20260505164048 23 157 9.7 25.7 0.00 0.03 0.00 40 1002.9
20260505163548 23 238 8.0 25.7 0.00 0.03 0.00 41 1002.9
20260505163054 22 201 9.7 25.7 0.00 0.03 0.00 42 1003.3